| time (UTC) | temp F | wind direction | speed MPH | gust MPH | rain 1hr in | rain 24hr in | rain mn in | humidity % | barometer mb |
| 20260504081530 | 44 | 0.0 | 0.0 | 0.00 | 0.00 | 0.00 | 981.4 | ||
| 20260504080530 | 44 | 0.0 | 0.0 | 0.00 | 0.00 | 0.00 | 981.5 | ||
| 20260504050526 | 37 | 0.0 | 0.0 | 0.00 | 0.00 | 0.00 | 981.8 | ||
| 20260504045526 | 36 | 0.0 | 0.0 | 0.00 | 0.00 | 0.00 | 981.8 | ||
| 20260504044526 | 36 | 0.0 | 0.0 | 0.00 | 0.00 | 0.00 | 981.7 | ||
| 20260504043526 | 36 | 0.0 | 0.0 | 0.00 | 0.00 | 0.00 | 981.6 | ||
| 20260504042526 | 35 | 0.0 | 0.0 | 0.00 | 0.00 | 0.00 | 981.4 | ||
| 20260504041525 | 35 | 0.0 | 0.0 | 0.00 | 0.00 | 0.00 | 981.5 | ||
| 20260504040525 | 34 | 0.0 | 0.0 | 0.00 | 0.00 | 0.00 | 981.4 | ||
| 20260504035525 | 33 | 0.0 | 0.0 | 0.00 | 0.00 | 0.00 | 981.4 | ||
| 20260504034525 | 33 | 0.0 | 0.0 | 0.00 | 0.00 | 0.00 | 981.4 | ||
| 20260504033525 | 32 | 0.0 | 0.0 | 0.00 | 0.00 | 0.00 | 981.3 | ||
| 20260504032524 | 32 | 0.0 | 0.0 | 0.00 | 0.00 | 0.00 | 981.3 | ||
| 20260504031524 | 31 | 0.0 | 0.0 | 0.00 | 0.00 | 0.00 | 981.4 | ||
| 20260504030524 | 31 | 0.0 | 0.0 | 0.00 | 0.00 | 0.00 | 981.3 | ||
| 20260504025524 | 30 | 0.0 | 0.0 | 0.00 | 0.00 | 0.00 | 981.3 | ||
| 20260504024523 | 30 | 0.0 | 0.0 | 0.00 | 0.00 | 0.00 | 981.4 | ||
| 20260504023523 | 30 | 0.0 | 0.0 | 0.00 | 0.00 | 0.00 | 981.3 | ||
| 20260504022523 | 30 | 0.0 | 0.0 | 0.00 | 0.00 | 0.00 | 981.4 | ||
| 20260504021523 | 30 | 0.0 | 0.0 | 0.00 | 0.00 | 0.00 | 981.4 | ||
| 20260504020523 | 30 | 0.0 | 0.0 | 0.00 | 0.00 | 0.00 | 981.4 | ||
| 20260504015522 | 30 | 0.0 | 0.0 | 0.00 | 0.00 | 0.00 | 981.3 | ||
| 20260504014522 | 30 | 0.0 | 0.0 | 0.00 | 0.00 | 0.00 | 981.4 | ||
| 20260504013522 | 30 | 0.0 | 0.0 | 0.00 | 0.00 | 0.00 | 981.4 | ||
| 20260504012522 | 30 | 0.0 | 0.0 | 0.00 | 0.00 | 0.00 | 981.6 | ||
| 20260504011521 | 30 | 0.0 | 0.0 | 0.00 | 0.00 | 0.00 | 981.5 | ||
| 20260504010521 | 30 | 0.0 | 0.0 | 0.00 | 0.00 | 0.00 | 981.5 | ||
| 20260504005521 | 30 | 0.0 | 0.0 | 0.00 | 0.00 | 0.00 | 981.4 | ||
| 20260504004521 | 30 | 0.0 | 0.0 | 0.00 | 0.00 | 0.00 | 981.3 | ||
| 20260504003521 | 30 | 0.0 | 0.0 | 0.00 | 0.00 | 0.00 | 981.3 | ||
| 20260504002520 | 30 | 0.0 | 0.0 | 0.00 | 0.00 | 0.00 | 981.2 | ||
| 20260504001520 | 31 | 0.0 | 0.0 | 0.00 | 0.00 | 0.00 | 981.3 | ||
| 20260504000520 | 31 | 0.0 | 0.0 | 0.00 | 0.00 | 0.00 | 981.3 | ||
| 20260503235520 | 31 | 0.0 | 0.0 | 0.00 | 0.00 | 0.00 | 981.2 | ||
| 20260503234519 | 31 | 0.0 | 0.0 | 0.00 | 0.00 | 0.00 | 981.3 | ||
| 20260503233519 | 31 | 0.0 | 0.0 | 0.00 | 0.00 | 0.00 | 981.2 | ||
| 20260503232519 | 31 | 0.0 | 0.0 | 0.00 | 0.00 | 0.00 | 981.2 | ||
| 20260503231519 | 31 | 0.0 | 0.0 | 0.00 | 0.00 | 0.00 | 981.2 | ||
| 20260503230519 | 31 | 0.0 | 0.0 | 0.00 | 0.00 | 0.00 | 981.3 | ||
| 20260503225518 | 31 | 0.0 | 0.0 | 0.00 | 0.00 | 0.00 | 981.2 | ||
| 20260503224518 | 32 | 0.0 | 0.0 | 0.00 | 0.00 | 0.00 | 981.4 | ||
| 20260503223518 | 32 | 0.0 | 0.0 | 0.00 | 0.00 | 0.00 | 981.5 | ||
| 20260503222518 | 33 | 0.0 | 0.0 | 0.00 | 0.00 | 0.00 | 981.5 | ||
| 20260503221517 | 33 | 0.0 | 0.0 | 0.00 | 0.00 | 0.00 | 981.6 | ||
| 20260503220517 | 33 | 0.0 | 0.0 | 0.00 | 0.00 | 0.00 | 981.5 | ||
| 20260503215517 | 33 | 0.0 | 0.0 | 0.00 | 0.00 | 0.00 | 981.4 | ||
| 20260503214517 | 34 | 0.0 | 0.0 | 0.00 | 0.00 | 0.00 | 981.5 | ||
| 20260503213517 | 34 | 0.0 | 0.0 | 0.00 | 0.00 | 0.00 | 981.4 | ||
| 20260503212516 | 34 | 0.0 | 0.0 | 0.00 | 0.00 | 0.00 | 981.4 | ||
| 20260503211516 | 35 | 0.0 | 0.0 | 0.00 | 0.00 | 0.00 | 981.5 | ||
| 20260503210516 | 35 | 0.0 | 0.0 | 0.00 | 0.00 | 0.00 | 981.5 | ||
| 20260503205516 | 35 | 0.0 | 0.0 | 0.00 | 0.00 | 0.00 | 981.4 | ||
| 20260503204515 | 35 | 0.0 | 0.0 | 0.00 | 0.00 | 0.00 | 981.6 | ||
| 20260503203515 | 36 | 0.0 | 0.0 | 0.00 | 0.00 | 0.00 | 981.6 | ||
| 20260503202515 | 36 | 0.0 | 0.0 | 0.00 | 0.00 | 0.00 | 981.5 | ||
| 20260503201515 | 36 | 0.0 | 0.0 | 0.00 | 0.00 | 0.00 | 981.5 | ||
| 20260503200515 | 36 | 0.0 | 0.0 | 0.00 | 0.00 | 0.00 | 981.5 | ||
| 20260503195514 | 37 | 0.0 | 0.0 | 0.00 | 0.00 | 0.00 | 981.3 | ||
| 20260503194514 | 37 | 0.0 | 0.0 | 0.00 | 0.00 | 0.00 | 981.4 | ||
| 20260503193514 | 37 | 0.0 | 0.0 | 0.00 | 0.00 | 0.00 | 981.4 | ||
| 20260503192514 | 37 | 0.0 | 0.0 | 0.00 | 0.00 | 0.00 | 981.4 | ||
| 20260503191513 | 38 | 0.0 | 0.0 | 0.00 | 0.00 | 0.00 | 981.3 | ||
| 20260503190513 | 38 | 0.0 | 0.0 | 0.00 | 0.00 | 0.00 | 981.3 | ||
| 20260503185513 | 38 | 0.0 | 0.0 | 0.00 | 0.00 | 0.00 | 981.2 | ||
| 20260503184513 | 38 | 0.0 | 0.0 | 0.00 | 0.00 | 0.00 | 981.2 | ||
| 20260503183512 | 38 | 0.0 | 0.0 | 0.00 | 0.00 | 0.00 | 981.1 | ||
| 20260503182512 | 39 | 0.0 | 0.0 | 0.00 | 0.00 | 0.00 | 981.2 | ||
| 20260503181512 | 39 | 0.0 | 0.0 | 0.00 | 0.00 | 0.00 | 981.1 | ||
| 20260503180512 | 40 | 0.0 | 0.0 | 0.00 | 0.00 | 0.00 | 981.1 | ||
| 20260503175512 | 41 | 0.0 | 0.0 | 0.00 | 0.00 | 0.00 | 981.1 | ||
| 20260503174511 | 42 | 0.0 | 0.0 | 0.00 | 0.00 | 0.00 | 981.1 | ||
| 20260503173511 | 44 | 0.0 | 0.0 | 0.00 | 0.00 | 0.00 | 981.1 | ||
| 20260503172511 | 44 | 0.0 | 0.0 | 0.00 | 0.00 | 0.00 | 981.2 | ||
| 20260503171511 | 44 | 0.0 | 0.0 | 0.00 | 0.00 | 0.00 | 981.1 | ||
| 20260503170510 | 46 | 0.0 | 0.0 | 0.00 | 0.00 | 0.00 | 981.2 | ||
| 20260503150508 | 62 | 0.0 | 0.0 | 0.00 | 0.00 | 0.00 | 981.2 | ||
| 20260503130505 | 48 | 0.0 | 0.0 | 0.00 | 0.00 | 0.00 | 980.7 | ||
| 20260503110502 | 45 | 0.0 | 0.0 | 0.00 | 0.00 | 0.00 | 980.1 | ||
| 20260503090500 | 42 | 0.0 | 0.0 | 0.00 | 0.00 | 0.00 | 979.2 |